QPF
0.00 0.00 0.00 0.00 0.00 0.00 0.00 0.00 0.01 0.01 0.01 0.01 0.01 0.01 0.01 0.01 0.01 0.01 0.02 0.03 0.02 0.01 0.01 0.01 0.01 0.01 0.01 0.02 0.02 0.02 0.01 0.01 0.01 0.01 0.02 0.02 0.02 0.02 0.01 0.02 0.03 0.03 0.04 0.04
0.00 0.00 0.00 0.00 0.00 0.00 0.01 0.01 0.01 0.01 0.01 0.02 0.01 0.01 0.01 0.01 0.01 0.01 0.02 0.02 0.01 0.01 0.01 0.01 0.00 0.00 0.01 0.01 0.01 0.02 0.02 0.01 0.01 0.01 0.02 0.02 0.02 0.02 0.02 0.02 0.02 0.03 0.04 0.04
0.01 0.00 0.00 0.01 0.01 0.01 0.01 0.01 0.01 0.01 0.02 0.01 0.01 0.01 0.01 0.01 0.01 0.01 0.01 0.02 0.01 0.01 0.01 0.01 0.01 0.00 0.01 0.01 0.01 0.02 0.02 0.01 0.01 0.01 0.02 0.02 0.02 0.02 0.02 0.02 0.02 0.03 0.04 0.03
0.01 0.01 0.02 0.02 0.01 0.01 0.01 0.01 0.01 0.01 0.01 0.01 0.01 0.01 0.01 0.01 0.01 0.02 0.02 0.02 0.02 0.02 0.02 0.01 0.01 0.01 0.01 0.01 0.01 0.03 0.01 0.01 0.00 0.00 0.01 0.02 0.02 0.02 0.02 0.02 0.03 0.03 0.04 0.04
0.02 0.02 0.02 0.01 0.01 0.01 0.01 0.02 0.01 0.01 0.01 0.00 0.00 0.01 0.01 0.01 0.02 0.02 0.02 0.03 0.02 0.02 0.02 0.02 0.02 0.01 0.01 0.01 0.01 0.02 0.01 0.01 0.01 0.00 0.01 0.01 0.01 0.01 0.02 0.03 0.03 0.03 0.03 0.03
0.02 0.01 0.02 0.01 0.01 0.01 0.01 0.02 0.01 0.01 0.01 0.00 0.00 0.01 0.01 0.01 0.01 0.01 0.01 0.02 0.02 0.02 0.03 0.03 0.02 0.01 0.01 0.01 0.02 0.01 0.01 0.01 0.01 0.01 0.01 0.01 0.01 0.01 0.01 0.02 0.03 0.03 0.03 0.03
0.02 0.01 0.02 0.01 0.00 0.00 0.01 0.02 0.01 0.00 0.00 0.01 0.01 0.01 0.01 0.01 0.02 0.01 0.01 0.02 0.02 0.03 0.04 0.03 0.03 0.02 0.02 0.01 0.02 0.02 0.01 0.01 0.01 0.01 0.01 0.01 0.01 0.01 0.01 0.02 0.03 0.04 0.04 0.04
0.01 0.02 0.02 0.01 0.00 0.01 0.02 0.01 0.00 0.00 0.00 0.01 0.01 0.01 0.01 0.02 0.01 0.01 0.01 0.01 0.01 0.03 0.03 0.02 0.02 0.02 0.01 0.02 0.03 0.02 0.02 0.02 0.02 0.02 0.02 0.01 0.02 0.01 0.01 0.02 0.04 0.04 0.04 0.04
0.01 0.02 0.01 0.01 0.01 0.01 0.01 0.00 0.00 0.00 0.00 0.01 0.02 0.02 0.02 0.02 0.01 0.01 0.01 0.02 0.02 0.04 0.04 0.02 0.01 0.01 0.01 0.01 0.02 0.02 0.02 0.02 0.02 0.02 0.02 0.01 0.01 0.01 0.01 0.03 0.04 0.03 0.03 0.03
0.01 0.01 0.00 0.00 0.00 0.00 0.00 0.00 0.00 0.00 0.01 0.01 0.01 0.01 0.01 0.01 0.01 0.02 0.03 0.02 0.02 0.03 0.04 0.02 0.01 0.00 0.01 0.01 0.02 0.01 0.01 0.01 0.01 0.01 0.01 0.01 0.01 0.01 0.02 0.04 0.04 0.03 0.03 0.02
0.01 0.00 0.00 0.00 0.00 0.00 0.00 0.00 0.00 0.00 0.00 0.01 0.01 0.01 0.01 0.02 0.02 0.02 0.03 0.02 0.02 0.01 0.01 0.01 0.00 0.00 0.01 0.01 0.01 0.01 0.01 0.01 0.01 0.00 0.00 0.01 0.01 0.02 0.04 0.06 0.04 0.03 0.02 0.01
0.01 0.00 0.00 0.00 0.00 0.00 0.00 0.00 0.00 0.00 0.00 0.01 0.01 0.00 0.01 0.01 0.01 0.02 0.02 0.02 0.02 0.01 0.01 0.01 0.01 0.01 0.01 0.01 0.01 0.01 0.01 0.01 0.01 0.01 0.01 0.01 0.02 0.02 0.02 0.02 0.01 0.01 0.01 0.01
0.01 0.01 0.00 0.00 0.00 0.00 0.00 0.00 0.00 0.00 0.00 0.00 0.00 0.01 0.01 0.01 0.02 0.02 0.02 0.02 0.01 0.01 0.01 0.01 0.01 0.01 0.01 0.01 0.01 0.01 0.01 0.01 0.01 0.01 0.01 0.02 0.02 0.03 0.02 0.01 0.01 0.01 0.01 0.02
0.00 0.00 0.00 0.00 0.00 0.00 0.00 0.00 0.00 0.00 0.00 0.00 0.00 0.00 0.00 0.01 0.02 0.02 0.01 0.02 0.01 0.01 0.01 0.01 0.01 0.01 0.01 0.01 0.01 0.01 0.01 0.01 0.01 0.01 0.02 0.02 0.02 0.01 0.01 0.01 0.02 0.02 0.03 0.03
0.00 0.00 0.00 0.00 0.00 0.00 0.00 0.00 0.00 0.00 0.00 0.00 0.00 0.00 0.00 0.01 0.02 0.01 0.01 0.02 0.02 0.01 0.01 0.01 0.01 0.01 0.01 0.01 0.01 0.01 0.01 0.01 0.01 0.01 0.02 0.02 0.02 0.02 0.01 0.01 0.02 0.03 0.04 0.03
0.00 0.00 0.00 0.00 0.00 0.00 0.00 0.00 0.00 0.00 0.00 0.00 0.00 0.00 0.01 0.01 0.01 0.01 0.02 0.01 0.01 0.02 0.02 0.01 0.01 0.01 0.00 0.01 0.01 0.01 0.01 0.01 0.01 0.02 0.02 0.01 0.01 0.01 0.01 0.01 0.03 0.03 0.04 0.03
0.00 0.00 0.00 0.00 0.00 0.00 0.00 0.00 0.00 0.00 0.00 0.00 0.00 0.00 0.01 0.01 0.01 0.01 0.02 0.02 0.02 0.02 0.02 0.02 0.01 0.01 0.00 0.01 0.01 0.01 0.01 0.01 0.02 0.03 0.02 0.02 0.02 0.01 0.01 0.02 0.03 0.04 0.05 0.03
0.00 0.00 0.00 0.00 0.00 0.01 0.00 0.00 0.00 0.00 0.00 0.00 0.00 0.00 0.00 0.01 0.01 0.02 0.01 0.02 0.02 0.03 0.03 0.02 0.01 0.01 0.00 0.00 0.01 0.01 0.02 0.02 0.02 0.02 0.01 0.01 0.02 0.02 0.02 0.03 0.04 0.03 0.04 0.03
0.00 0.00 0.00 0.00 0.00 0.00 0.00 0.00 0.00 0.00 0.00 0.00 0.01 0.00 0.00 0.01 0.01 0.01 0.01 0.01 0.02 0.02 0.02 0.01 0.01 0.00 0.00 0.01 0.01 0.01 0.02 0.02 0.01 0.01 0.01 0.00 0.00 0.00 0.01 0.03 0.03 0.03 0.03 0.03
0.00 0.00 0.00 0.00 0.00 0.00 0.00 0.00 0.00 0.00 0.00 0.00 0.01 0.00 0.01 0.01 0.01 0.01 0.01 0.01 0.01 0.01 0.01 0.01 0.01 0.01 0.01 0.01 0.01 0.01 0.01 0.01 0.01 0.01 0.01 0.01 0.01 0.01 0.00 0.01 0.02 0.03 0.03 0.02
0.00 0.00 0.00 0.00 0.00 0.00 0.00 0.00 0.00 0.00 0.00 0.00 0.01 0.00 0.01 0.01 0.01 0.02 0.01 0.01 0.01 0.01 0.01 0.01 0.01 0.02 0.01 0.01 0.01 0.01 0.01 0.01 0.01 0.01 0.01 0.01 0.01 0.00 0.00 0.00 0.02 0.02 0.02 0.01
0.00 0.00 0.00 0.00 0.00 0.00 0.00 0.00 0.00 0.00 0.00 0.01 0.01 0.01 0.01 0.01 0.02 0.02 0.01 0.01 0.01 0.01 0.01 0.02 0.02 0.02 0.02 0.01 0.01 0.01 0.01 0.01 0.02 0.02 0.01 0.01 0.01 0.01 0.01 0.01 0.01 0.01 0.01 0.01
0.00 0.00 0.00 0.00 0.00 0.00 0.00 0.00 0.00 0.00 0.00 0.01 0.01 0.01 0.02 0.03 0.03 0.01 0.01 0.01 0.02 0.02 0.02 0.01 0.02 0.02 0.01 0.00 0.01 0.01 0.01 0.01 0.02 0.02 0.01 0.01 0.01 0.02 0.01 0.01 0.01 0.01 0.01 0.01
0.00 0.00 0.00 0.00 0.00 0.01 0.01 0.00 0.00 0.01 0.01 0.01 0.01 0.02 0.03 0.03 0.01 0.01 0.01 0.02 0.02 0.01 0.01 0.01 0.01 0.00 0.00 0.00 0.01 0.01 0.01 0.01 0.01 0.01 0.01 0.01 0.01 0.01 0.01 0.01 0.01 0.01 0.01 0.01
0.00 0.00 0.00 0.01 0.01 0.01 0.01 0.01 0.01 0.02 0.02 0.02 0.02 0.03 0.03 0.02 0.01 0.01 0.01 0.01 0.01 0.01 0.01 0.00 0.00 0.00 0.00 0.01 0.01 0.01 0.01 0.01 0.01 0.00 0.00 0.00 0.01 0.01 0.01 0.01 0.01 0.01 0.01 0.01
0.01 0.01 0.01 0.01 0.01 0.01 0.01 0.01 0.02 0.02 0.02 0.03 0.03 0.02 0.02 0.02 0.02 0.01 0.01 0.01 0.01 0.01 0.00 0.00 0.00 0.00 0.00 0.00 0.01 0.01 0.01 0.01 0.01 0.00 0.00 0.00 0.00 0.01 0.01 0.01 0.01 0.01 0.00 0.01
0.01 0.01 0.02 0.02 0.01 0.01 0.01 0.01 0.02 0.02 0.02 0.02 0.02 0.01 0.01 0.02 0.02 0.02 0.01 0.01 0.01 0.01 0.00 0.00 0.00 0.00 0.00 0.00 0.00 0.01 0.01 0.01 0.01 0.00 0.00 0.00 0.00 0.00 0.00 0.00 0.01 0.01 0.01 0.01
MSLP
1013.85 1014.11 1014.60 1015.27 1016.03 1016.77 1017.38 1017.76 1017.83 1017.57 1017.00 1016.20 1015.24 1014.26 1013.37 1012.63 1012.10 1011.80 1011.68 1011.69 1011.77 1011.84 1011.86 1011.79 1011.65 1011.45 1011.24 1011.05 1010.92 1010.87 1010.89 1010.96 1011.04 1011.09 1011.06 1010.93 1010.69 1010.34 1009.89 1009.39 1008.85 1008.31 1007.77 1007.23
1014.65 1015.07 1015.72 1016.52 1017.39 1018.21 1018.87 1019.26 1019.32 1019.03 1018.41 1017.52 1016.47 1015.37 1014.33 1013.43 1012.73 1012.24 1011.94 1011.79 1011.71 1011.65 1011.57 1011.45 1011.27 1011.06 1010.86 1010.69 1010.59 1010.56 1010.59 1010.66 1010.72 1010.73 1010.66 1010.47 1010.16 1009.73 1009.21 1008.63 1008.02 1007.41 1006.81 1006.24
1015.70 1016.27 1017.04 1017.95 1018.91 1019.79 1020.48 1020.87 1020.92 1020.60 1019.92 1018.96 1017.81 1016.60 1015.41 1014.35 1013.47 1012.79 1012.29 1011.96 1011.73 1011.55 1011.38 1011.20 1011.00 1010.80 1010.62 1010.48 1010.39 1010.37 1010.39 1010.42 1010.43 1010.39 1010.24 1009.97 1009.58 1009.07 1008.48 1007.83 1007.17 1006.51 1005.89 1005.31
1017.03 1017.70 1018.55 1019.51 1020.48 1021.36 1022.03 1022.41 1022.42 1022.05 1021.33 1020.31 1019.08 1017.76 1016.46 1015.25 1014.20 1013.34 1012.67 1012.17 1011.80 1011.52 1011.28 1011.06 1010.86 1010.67 1010.51 1010.39 1010.32 1010.28 1010.26 1010.24 1010.18 1010.04 1009.80 1009.45 1008.98 1008.41 1007.77 1007.09 1006.41 1005.75 1005.14 1004.57
1018.61 1019.32 1020.16 1021.08 1022.00 1022.80 1023.39 1023.68 1023.63 1023.20 1022.43 1021.37 1020.09 1018.70 1017.31 1015.99 1014.81 1013.82 1013.01 1012.38 1011.90 1011.54 1011.25 1011.02 1010.82 1010.65 1010.51 1010.40 1010.32 1010.25 1010.18 1010.08 1009.92 1009.70 1009.37 1008.94 1008.42 1007.83 1007.18 1006.52 1005.87 1005.25 1004.68 1004.15
1020.37 1021.02 1021.77 1022.56 1023.32 1023.96 1024.40 1024.57 1024.41 1023.92 1023.10 1022.01 1020.71 1019.31 1017.87 1016.50 1015.25 1014.16 1013.26 1012.55 1011.99 1011.58 1011.26 1011.02 1010.84 1010.69 1010.56 1010.45 1010.35 1010.23 1010.09 1009.92 1009.68 1009.37 1008.97 1008.51 1007.97 1007.39 1006.79 1006.20 1005.62 1005.09 1004.60 1004.15
1022.15 1022.68 1023.26 1023.84 1024.37 1024.78 1025.01 1025.01 1024.73 1024.17 1023.32 1022.22 1020.94 1019.55 1018.13 1016.75 1015.48 1014.36 1013.41 1012.64 1012.05 1011.60 1011.27 1011.04 1010.86 1010.73 1010.61 1010.49 1010.36 1010.20 1010.00 1009.75 1009.44 1009.07 1008.65 1008.18 1007.68 1007.17 1006.66 1006.18 1005.73 1005.32 1004.94 1004.59
1023.81 1024.16 1024.50 1024.81 1025.07 1025.22 1025.22 1025.03 1024.63 1023.99 1023.12 1022.05 1020.82 1019.49 1018.12 1016.78 1015.53 1014.41 1013.45 1012.67 1012.05 1011.59 1011.26 1011.03 1010.86 1010.73 1010.62 1010.49 1010.34 1010.14 1009.89 1009.58 1009.23 1008.84 1008.42 1007.99 1007.57 1007.17 1006.80 1006.47 1006.17 1005.91 1005.66 1005.40
1025.19 1025.33 1025.41 1025.44 1025.41 1025.29 1025.07 1024.71 1024.19 1023.50 1022.64 1021.62 1020.46 1019.22 1017.93 1016.67 1015.47 1014.37 1013.42 1012.63 1012.01 1011.54 1011.20 1010.97 1010.81 1010.69 1010.58 1010.44 1010.27 1010.05 1009.77 1009.44 1009.08 1008.69 1008.31 1007.96 1007.64 1007.37 1007.15 1006.99 1006.86 1006.75 1006.62 1006.46
1026.18 1026.11 1025.95 1025.71 1025.43 1025.08 1024.66 1024.16 1023.57 1022.86 1022.02 1021.07 1020.00 1018.86 1017.67 1016.48 1015.34 1014.28 1013.35 1012.56 1011.93 1011.45 1011.11 1010.87 1010.72 1010.60 1010.49 1010.35 1010.18 1009.95 1009.66 1009.34 1008.99 1008.64 1008.32 1008.05 1007.85 1007.71 1007.65 1007.64 1007.66 1007.68 1007.67 1007.58
1026.76 1026.49 1026.12 1025.68 1025.18 1024.66 1024.11 1023.52 1022.89 1022.19 1021.40 1020.53 1019.56 1018.52 1017.42 1016.31 1015.22 1014.19 1013.27 1012.47 1011.83 1011.33 1010.98 1010.74 1010.58 1010.47 1010.36 1010.24 1010.08 1009.86 1009.60 1009.30 1008.98 1008.69 1008.43 1008.25 1008.14 1008.13 1008.19 1008.30 1008.44 1008.55 1008.61 1008.57
1026.94 1026.52 1026.00 1025.41 1024.79 1024.16 1023.54 1022.92 1022.28 1021.62 1020.90 1020.11 1019.24 1018.28 1017.26 1016.20 1015.15 1014.13 1013.20 1012.39 1011.72 1011.21 1010.83 1010.58 1010.42 1010.31 1010.23 1010.13 1010.00 1009.82 1009.59 1009.33 1009.06 1008.81 1008.62 1008.50 1008.47 1008.54 1008.67 1008.86 1009.05 1009.22 1009.30 1009.28
1026.85 1026.33 1025.71 1025.04 1024.36 1023.69 1023.05 1022.44 1021.84 1021.23 1020.58 1019.87 1019.06 1018.17 1017.20 1016.18 1015.14 1014.12 1013.17 1012.33 1011.63 1011.08 1010.68 1010.41 1010.25 1010.16 1010.11 1010.04 1009.95 1009.81 1009.63 1009.42 1009.20 1009.01 1008.86 1008.78 1008.79 1008.89 1009.05 1009.26 1009.46 1009.63 1009.71 1009.67
1026.61 1026.04 1025.38 1024.69 1024.00 1023.34 1022.73 1022.15 1021.61 1021.05 1020.46 1019.81 1019.06 1018.21 1017.26 1016.25 1015.20 1014.16 1013.18 1012.30 1011.56 1010.97 1010.55 1010.26 1010.10 1010.03 1010.00 1009.97 1009.93 1009.85 1009.73 1009.57 1009.40 1009.25 1009.13 1009.08 1009.09 1009.18 1009.33 1009.50 1009.67 1009.80 1009.84 1009.76
1026.36 1025.78 1025.12 1024.44 1023.78 1023.16 1022.60 1022.07 1021.58 1021.07 1020.53 1019.91 1019.19 1018.36 1017.42 1016.40 1015.33 1014.26 1013.24 1012.32 1011.53 1010.91 1010.45 1010.15 1009.98 1009.91 1009.91 1009.93 1009.94 1009.92 1009.86 1009.76 1009.64 1009.53 1009.43 1009.38 1009.39 1009.44 1009.54 1009.66 1009.76 1009.82 1009.80 1009.67
1026.20 1025.63 1025.00 1024.36 1023.74 1023.17 1022.65 1022.17 1021.72 1021.25 1020.73 1020.13 1019.42 1018.60 1017.66 1016.62 1015.53 1014.43 1013.37 1012.41 1011.58 1010.91 1010.41 1010.08 1009.90 1009.84 1009.85 1009.90 1009.96 1010.00 1010.00 1009.97 1009.91 1009.84 1009.77 1009.72 1009.70 1009.72 1009.76 1009.80 1009.83 1009.81 1009.72 1009.53
1026.17 1025.62 1025.03 1024.43 1023.86 1023.33 1022.85 1022.40 1021.97 1021.52 1021.02 1020.43 1019.72 1018.90 1017.95 1016.91 1015.80 1014.68 1013.59 1012.58 1011.71 1010.99 1010.45 1010.08 1009.88 1009.80 1009.82 1009.90 1010.00 1010.09 1010.16 1010.19 1010.19 1010.17 1010.14 1010.10 1010.07 1010.05 1010.04 1010.02 1009.97 1009.88 1009.72 1009.48
1026.23 1025.72 1025.17 1024.62 1024.08 1023.58 1023.12 1022.68 1022.26 1021.82 1021.32 1020.74 1020.04 1019.22 1018.29 1017.25 1016.14 1015.00 1013.89 1012.86 1011.94 1011.18 1010.58 1010.17 1009.92 1009.81 1009.82 1009.90 1010.03 1010.17 1010.30 1010.41 1010.48 1010.52 1010.54 1010.53 1010.51 1010.48 1010.43 1010.36 1010.25 1010.10 1009.88 1009.60
1026.35 1025.87 1025.35 1024.82 1024.31 1023.82 1023.36 1022.93 1022.51 1022.07 1021.58 1021.01 1020.34 1019.54 1018.63 1017.62 1016.54 1015.41 1014.30 1013.24 1012.28 1011.47 1010.81 1010.33 1010.02 1009.87 1009.84 1009.92 1010.06 1010.24 1010.43 1010.60 1010.75 1010.87 1010.95 1011.00 1011.01 1010.99 1010.93 1010.84 1010.69 1010.50 1010.24 1009.93
1026.42 1025.97 1025.48 1024.96 1024.45 1023.96 1023.50 1023.07 1022.65 1022.22 1021.75 1021.21 1020.57 1019.83 1018.98 1018.02 1016.97 1015.88 1014.77 1013.70 1012.72 1011.85 1011.13 1010.58 1010.19 1009.97 1009.90 1009.95 1010.09 1010.30 1010.53 1010.77 1011.00 1011.20 1011.36 1011.47 1011.54 1011.55 1011.51 1011.41 1011.25 1011.03 1010.75 1010.41
1026.39 1025.96 1025.47 1024.96 1024.44 1023.95 1023.49 1023.05 1022.64 1022.23 1021.79 1021.30 1020.73 1020.06 1019.28 1018.39 1017.41 1016.37 1015.29 1014.22 1013.21 1012.29 1011.50 1010.87 1010.40 1010.10 1009.97 1009.98 1010.11 1010.32 1010.59 1010.89 1011.19 1011.47 1011.72 1011.91 1012.03 1012.10 1012.09 1012.00 1011.85 1011.63 1011.34 1011.00
1026.21 1025.78 1025.30 1024.78 1024.26 1023.76 1023.30 1022.87 1022.48 1022.10 1021.71 1021.29 1020.80 1020.22 1019.53 1018.73 1017.83 1016.84 1015.80 1014.74 1013.71 1012.74 1011.89 1011.17 1010.62 1010.24 1010.03 1009.99 1010.09 1010.30 1010.60 1010.94 1011.31 1011.67 1011.99 1012.26 1012.45 1012.57 1012.61 1012.55 1012.42 1012.21 1011.93 1011.60
1025.87 1025.45 1024.96 1024.44 1023.91 1023.41 1022.95 1022.54 1022.18 1021.85 1021.52 1021.18 1020.78 1020.29 1019.71 1019.00 1018.18 1017.26 1016.26 1015.22 1014.17 1013.17 1012.26 1011.47 1010.83 1010.36 1010.08 1009.98 1010.04 1010.24 1010.54 1010.92 1011.34 1011.76 1012.15 1012.49 1012.75 1012.93 1013.02 1013.01 1012.91 1012.73 1012.47 1012.16
1025.42 1024.99 1024.49 1023.96 1023.44 1022.95 1022.50 1022.12 1021.80 1021.52 1021.26 1021.00 1020.69 1020.30 1019.81 1019.20 1018.46 1017.61 1016.65 1015.63 1014.57 1013.54 1012.57 1011.72 1011.00 1010.46 1010.10 1009.93 1009.95 1010.12 1010.42 1010.81 1011.26 1011.73 1012.18 1012.58 1012.91 1013.16 1013.30 1013.34 1013.29 1013.15 1012.94 1012.67
1024.88 1024.44 1023.95 1023.43 1022.91 1022.44 1022.02 1021.67 1021.39 1021.17 1020.98 1020.79 1020.56 1020.26 1019.85 1019.33 1018.66 1017.87 1016.96 1015.95 1014.90 1013.85 1012.84 1011.92 1011.14 1010.52 1010.09 1009.86 1009.82 1009.96 1010.24 1010.63 1011.10 1011.60 1012.10 1012.56 1012.95 1013.25 1013.46 1013.56 1013.57 1013.49 1013.34 1013.12
1024.31 1023.87 1023.39 1022.88 1022.40 1021.95 1021.57 1021.26 1021.03 1020.85 1020.72 1020.59 1020.43 1020.20 1019.86 1019.40 1018.80 1018.06 1017.19 1016.21 1015.16 1014.10 1013.06 1012.10 1011.26 1010.58 1010.08 1009.78 1009.69 1009.77 1010.02 1010.40 1010.87 1011.39 1011.92 1012.43 1012.88 1013.25 1013.52 1013.70 1013.79 1013.78 1013.70 1013.56
1023.72 1023.30 1022.85 1022.38 1021.93 1021.52 1021.18 1020.91 1020.72 1020.60 1020.50 1020.42 1020.31 1020.13 1019.86 1019.45 1018.91 1018.21 1017.38 1016.43 1015.40 1014.34 1013.29 1012.29 1011.41 1010.67 1010.10 1009.74 1009.58 1009.61 1009.81 1010.16 1010.61 1011.14 1011.69 1012.24 1012.75 1013.18 1013.54 1013.80 1013.97 1014.06 1014.06 1014.00
Thickness
5709 5711 5708 5704 5702 5701 5696 5693 5684 5683 5681 5679 5678 5676 5674 5672 5669 5665 5662 5659 5657 5654 5652 5650 5649 5646 5645 5643 5643 5642 5641 5640 5639 5638 5637 5636 5635 5635 5635 5634 5634 5631 5629 5627
5702 5707 5703 5697 5697 5695 5691 5688 5684 5680 5675 5679 5676 5673 5669 5666 5663 5660 5658 5655 5653 5651 5648 5646 5644 5643 5641 5639 5638 5637 5636 5635 5635 5634 5632 5631 5630 5630 5630 5630 5628 5627 5625 5623
5696 5702 5697 5687 5691 5688 5685 5684 5680 5673 5672 5673 5668 5665 5663 5661 5659 5656 5654 5652 5650 5647 5645 5642 5640 5638 5636 5635 5634 5633 5631 5630 5630 5629 5628 5627 5627 5626 5625 5624 5623 5621 5619 5617
5693 5689 5674 5685 5693 5688 5681 5679 5678 5674 5671 5668 5665 5663 5663 5660 5656 5653 5651 5648 5646 5644 5641 5640 5638 5636 5634 5632 5631 5629 5628 5627 5626 5626 5624 5623 5622 5620 5619 5618 5617 5615 5614 5612
5687 5683 5682 5683 5685 5681 5674 5670 5672 5668 5665 5665 5663 5661 5660 5658 5654 5650 5648 5645 5642 5640 5639 5637 5635 5633 5630 5629 5627 5626 5625 5624 5623 5622 5620 5618 5617 5615 5614 5613 5612 5610 5609 5608
5681 5672 5667 5677 5682 5682 5673 5664 5667 5664 5660 5658 5657 5652 5653 5652 5649 5647 5644 5642 5639 5638 5636 5633 5631 5629 5627 5625 5623 5622 5621 5620 5620 5618 5616 5615 5613 5612 5611 5609 5607 5607 5606 5604
5674 5669 5673 5678 5679 5675 5658 5656 5661 5660 5656 5653 5650 5647 5648 5647 5645 5642 5640 5638 5636 5634 5631 5629 5627 5625 5623 5621 5619 5619 5618 5617 5616 5614 5612 5611 5609 5608 5607 5606 5604 5603 5602 5601
5671 5665 5664 5673 5671 5662 5657 5660 5658 5655 5653 5650 5647 5646 5645 5642 5640 5638 5636 5634 5632 5629 5627 5625 5624 5622 5620 5618 5617 5615 5614 5613 5612 5610 5610 5609 5606 5605 5604 5602 5602 5601 5599 5599
5670 5668 5669 5671 5665 5663 5660 5656 5654 5652 5650 5647 5643 5642 5641 5638 5636 5634 5632 5629 5627 5625 5623 5623 5622 5619 5617 5616 5614 5612 5611 5610 5608 5607 5606 5605 5604 5603 5603 5601 5602 5601 5600 5598
5665 5668 5668 5666 5664 5661 5658 5654 5653 5651 5647 5644 5641 5639 5638 5635 5632 5630 5628 5625 5623 5621 5621 5620 5619 5618 5616 5614 5612 5611 5609 5608 5606 5605 5604 5602 5601 5602 5601 5600 5599 5598 5596 5594
5660 5663 5663 5662 5659 5657 5655 5652 5650 5647 5645 5642 5639 5637 5634 5631 5628 5626 5624 5622 5619 5618 5618 5618 5617 5615 5614 5613 5610 5608 5607 5606 5605 5605 5604 5600 5600 5598 5598 5595 5592 5590 5591 5590
5658 5659 5656 5655 5656 5654 5650 5648 5646 5643 5640 5639 5637 5634 5631 5628 5626 5623 5621 5619 5616 5615 5615 5615 5615 5613 5612 5611 5609 5606 5606 5605 5606 5605 5603 5602 5601 5599 5593 5591 5587 5583 5580 5579
5657 5657 5655 5653 5652 5651 5647 5645 5643 5640 5637 5635 5634 5631 5628 5625 5623 5620 5618 5616 5614 5614 5613 5613 5612 5611 5610 5609 5607 5605 5603 5603 5604 5603 5603 5602 5601 5600 5598 5593 5587 5583 5580 5577
5653 5651 5648 5648 5647 5646 5644 5642 5640 5637 5635 5633 5631 5628 5625 5622 5620 5618 5616 5614 5614 5613 5612 5611 5611 5610 5609 5608 5605 5604 5603 5602 5600 5601 5600 5600 5599 5599 5599 5597 5595 5592 5585 5579
5648 5647 5646 5645 5643 5641 5640 5638 5635 5633 5631 5630 5627 5624 5622 5619 5616 5615 5615 5614 5612 5611 5610 5610 5609 5608 5607 5606 5604 5603 5603 5602 5601 5601 5600 5600 5599 5599 5599 5598 5596 5594 5592 5587
5643 5643 5641 5639 5637 5636 5635 5633 5630 5629 5628 5625 5623 5621 5619 5616 5615 5614 5613 5612 5610 5609 5608 5607 5607 5607 5606 5605 5604 5603 5602 5598 5598 5600 5601 5600 5600 5599 5599 5598 5595 5593 5592 5589
5635 5634 5633 5632 5632 5631 5630 5629 5628 5626 5624 5622 5620 5619 5616 5614 5613 5611 5611 5611 5609 5607 5607 5606 5605 5606 5606 5604 5603 5604 5603 5601 5596 5599 5600 5600 5600 5599 5598 5597 5595 5593 5591 5587
5633 5632 5630 5628 5627 5626 5625 5625 5624 5623 5621 5620 5618 5616 5613 5611 5609 5608 5608 5608 5607 5606 5606 5606 5605 5604 5604 5604 5602 5603 5603 5603 5601 5600 5600 5600 5600 5600 5599 5598 5596 5593 5592 5589
5626 5626 5625 5624 5623 5622 5621 5620 5619 5618 5617 5616 5615 5612 5610 5609 5608 5607 5606 5605 5605 5605 5605 5605 5600 5601 5602 5602 5600 5602 5603 5602 5601 5600 5600 5598 5599 5600 5599 5597 5595 5594 5593 5590
5618 5618 5618 5618 5617 5616 5615 5614 5614 5612 5611 5610 5609 5608 5607 5606 5605 5605 5604 5603 5604 5604 5604 5602 5601 5602 5602 5602 5599 5604 5604 5602 5601 5600 5600 5601 5601 5600 5600 5598 5596 5593 5591 5589
5609 5610 5610 5610 5610 5609 5609 5608 5607 5606 5605 5605 5604 5603 5603 5603 5603 5602 5602 5603 5603 5602 5601 5599 5601 5602 5603 5601 5598 5603 5603 5601 5600 5600 5600 5600 5599 5599 5599 5597 5595 5593 5591 5589
5601 5601 5601 5602 5602 5602 5602 5602 5602 5601 5600 5600 5600 5600 5600 5600 5601 5601 5601 5601 5601 5598 5600 5603 5603 5600 5599 5597 5602 5604 5603 5600 5599 5599 5598 5598 5598 5598 5597 5596 5594 5592 5590 5589
5593 5593 5593 5594 5595 5596 5597 5597 5597 5597 5596 5596 5596 5596 5597 5598 5600 5600 5600 5601 5601 5597 5598 5601 5598 5595 5593 5598 5602 5603 5601 5599 5598 5598 5598 5597 5598 5598 5597 5595 5594 5592 5590 5588
5585 5585 5586 5587 5589 5590 5591 5593 5594 5593 5593 5593 5595 5595 5595 5596 5598 5600 5600 5597 5596 5595 5598 5597 5594 5593 5591 5599 5601 5601 5599 5598 5597 5598 5598 5598 5597 5597 5596 5594 5593 5592 5590 5587
5578 5579 5581 5582 5583 5586 5588 5589 5590 5590 5591 5593 5594 5595 5596 5596 5597 5598 5598 5597 5596 5595 5597 5597 5594 5593 5596 5600 5600 5599 5598 5597 5596 5595 5595 5596 5596 5596 5595 5594 5592 5591 5589 5586
5571 5574 5577 5577 5579 5582 5585 5587 5588 5589 5590 5591 5592 5593 5594 5594 5595 5596 5596 5597 5597 5595 5597 5600 5600 5596 5600 5600 5600 5598 5596 5594 5594 5594 5594 5594 5594 5593 5592 5591 5590 5589 5587 5584
5568 5569 5570 5573 5576 5579 5581 5583 5584 5585 5587 5587 5588 5589 5590 5591 5592 5593 5594 5595 5596 5597 5598 5599 5601 5600 5600 5599 5598 5596 5595 5593 5593 5592 5592 5592 5591 5590 5589 5588 5588 5586 5584 5582